TimeMST,TemperatureF,Dew PointF,Humidity,Sea Level PressureIn,VisibilityMPH,Wind Direction,Wind SpeedMPH,Gust SpeedMPH,PrecipitationIn,Events,Conditions,WindDirDegrees,DateUTC
12:53 AM,-2.0,-6.0,83,30.47,10.0,ESE,3.5,-,N/A,,Clear,120,2013-01-04 07:53:00
1:53 AM,-2.0,-7.1,79,30.44,10.0,Calm,Calm,-,N/A,,Clear,0,2013-01-04 08:53:00
2:53 AM,1.9,-2.9,80,30.45,8.0,Calm,Calm,-,N/A,,Clear,0,2013-01-04 09:53:00
3:53 AM,-2.0,-7.1,79,30.47,10.0,Calm,Calm,-,N/A,,Clear,0,2013-01-04 10:53:00
4:53 AM,-2.2,-7.6,78,30.20,10.0,SSE,4.6,-,N/A,,Clear,160,2013-01-04 11:53:00
5:53 AM,-4.0,-9.4,78,30.20,10.0,Calm,Calm,-,N/A,,Clear,0,2013-01-04 12:53:00
6:53 AM,-2.9,-8.0,79,30.53,10.0,SE,4.6,-,N/A,,Clear,140,2013-01-04 13:53:00
7:53 AM,-5.1,-9.9,80,30.54,10.0,Calm,Calm,-,N/A,,Clear,0,2013-01-04 14:53:00
8:53 AM,-5.1,-9.0,83,30.56,10.0,Calm,Calm,-,N/A,,Clear,0,2013-01-04 15:53:00
9:53 AM,3.0,-2.9,76,30.54,10.0,South,3.5,-,N/A,,Clear,170,2013-01-04 16:53:00
10:53 AM,9.0,1.9,73,30.52,10.0,Calm,Calm,-,N/A,,Clear,0,2013-01-04 17:53:00
11:53 AM,15.1,3.9,61,30.48,10.0,Calm,Calm,-,N/A,,Clear,0,2013-01-04 18:53:00
12:53 PM,21.0,5.0,50,30.43,10.0,NNW,3.5,-,N/A,,Clear,340,2013-01-04 19:53:00
1:53 PM,24.1,8.1,51,30.41,9.0,Calm,Calm,-,N/A,,Clear,0,2013-01-04 20:53:00
2:53 PM,24.1,8.1,51,30.40,9.0,Calm,Calm,-,N/A,,Clear,0,2013-01-04 21:53:00
3:53 PM,23.0,9.0,55,30.43,9.0,Calm,Calm,-,N/A,,Clear,0,2013-01-04 22:53:00
4:53 PM,19.0,8.1,62,30.45,9.0,Calm,Calm,-,N/A,,Clear,0,2013-01-04 23:53:00
5:53 PM,17.6,8.6,68,30.18,10.0,Calm,Calm,-,N/A,,Clear,0,2013-01-05 00:53:00
6:53 PM,17.1,9.0,71,30.47,10.0,Calm,Calm,-,N/A,,Clear,0,2013-01-05 01:53:00
7:53 PM,19.0,10.0,68,30.47,8.0,NNE,3.5,-,N/A,,Overcast,20,2013-01-05 02:53:00
8:53 PM,15.1,9.0,77,30.50,10.0,Calm,Calm,-,N/A,,Overcast,0,2013-01-05 03:53:00
9:53 PM,19.0,12.0,74,30.45,10.0,NNE,4.6,-,N/A,,Overcast,30,2013-01-05 04:53:00
10:53 PM,19.0,14.0,81,30.44,10.0,Calm,Calm,-,N/A,,Overcast,0,2013-01-05 05:53:00
11:53 PM,16.0,10.9,81,30.43,10.0,SE,3.5,-,N/A,,Scattered Clouds,130,2013-01-05 06:53:00